Flag for Mexico Weather past 2 weeks in Mexicali, Baja California, Mexico

Now
78 °F

Clear.


Feels Like: 78 °F
Forecast: 74 / 99 °F
Wind: 7 mph from West

Location: Imperial County Airport

Current Time: Sep 21, 2014 at 4:00:24 AM

Latest Report: Sep 21, 2014 at 2:53 AM


Visibility: 10 mi

Pressure: 29.77 "Hg

Humidity: 35%

Dew point: 48 °F

Location of MexicaliLocation

Historic Weather in Mexicali — Graph

°F

Mexicali temperature yesterday

Maximum temperature yesterday: 100 °F (at 2:53 PM)
Minimum temperature yesterday: 75 °F (at 5:53 AM)
Average temperature yesterday: 89 °F

Past Weeks' High & Low Weather Summary

 TemperatureHumidityPressure
High108 °F (Sep 12, 3:53 PM)82% (Sep 6, 3:53 AM)29.88 "Hg (Sep 6, 3:53 AM)
Low75 °F (Sep 20, 5:53 AM)10% (Sep 18, 2:53 PM)29.60 "Hg (Sep 18, 3:53 PM)
Average92 °F41%29.73 "Hg
* Reported Sep 6 2:53 AM — Sep 21 2:53 AM, Mexicali, Weather by CustomWeather, © 2014

Note: Actual official high and low records may vary slightly from our data, if they occured in-between our weather recording intervals... More about our weather records

Advertising

Mexicali weather history for previous 24 hours

 ConditionsComfort  
Time TempWeatherWind HumidityBarometerVisibility
2:53 AM
Sep 21
78 °FClear.7 mph35%29.77 "Hg10 mi
1:53 AM81 °FClear.8 mph29%29.78 "Hg10 mi
12:53 AM84 °FClear.3 mph26%29.78 "Hg10 mi
11:53 PM
Sep 20
82 °FClear.7 mph34%29.77 "Hg10 mi
10:53 PM83 °FClear.8 mph36%29.76 "Hg10 mi
9:53 PM86 °FClear.10 mph32%29.75 "Hg10 mi
8:53 PM87 °FClear.13 mph35%29.73 "Hg10 mi
7:53 PM89 °FClear.10 mph34%29.71 "Hg10 mi
6:53 PM96 °FSunny.3 mph27%29.69 "Hg10 mi
5:53 PM98 °FSunny.3 mph26%29.68 "Hg10 mi
4:53 PM99 °FSunny.3 mph25%29.69 "Hg10 mi
3:53 PM99 °FSunny.3 mph26%29.70 "Hg10 mi
2:53 PM100 °FSunny.10 mph25%29.72 "Hg10 mi
1:53 PM97 °FSunny.6 mph34%29.74 "Hg10 mi
12:53 PM95 °FSunny.5 mph35%29.77 "Hg10 mi
11:53 AM93 °FSunny.6 mph36%29.80 "Hg10 mi
10:53 AM92 °FSunny.8 mph38%29.82 "Hg10 mi
5:53 AM75 °FClear.No wind60%29.76 "Hg10 mi
4:53 AM79 °FClear.3 mph48%29.75 "Hg10 mi
Weather by CustomWeather, © 2014

See weather overviewHow to use our weather pages